This demonstration page uses our WeatherBlox Daily Observations layout. Learn more.

Left ArrowRight Arrow

47.50024, -111.30081

Hourly Observations for May 25, 2017

Temp ( °F °C ) Dew Point ( °F °C ) Humidity (%) Winds ( mph kmh ) Pressure ( in mb ) Visibility ( mi km ) Precip ( " mm )
12:53 am 00:53 Cloudy with Light Rain 43 6.1 36 2.2 76 76 WSW 25 41 29.55 1001 10 16 0.00 0.03
1:23 am 01:23 Cloudy with Light Rain 42 5.6 36 2.2 79 79 WSW 22 35 29.59 1002 10 16 0.02 0.51
1:41 am 01:41 Cloudy with Light Rain 42 5.6 37 2.8 82 82 W 21 33 29.59 1002 10 16 0.03 0.76
1:49 am 01:49 Cloudy with Light Rain 43 6 37 3 81 81 WSW 20 31 29.59 1002 10 16 0.04 1.02
1:53 am 01:53 Cloudy with Light Rain 42 5.6 37 2.8 82 82 WSW 23 37 29.55 1001 9 14 0.04 1.02
2:18 am 02:18 Cloudy with Light Rain 42 5.6 37 2.8 82 82 WSW 20 31 29.62 1003 10 16 0.01 0.25
2:32 am 02:32 Cloudy with Light Rain 42 5.6 37 2.8 82 82 WSW 22 35 29.62 1003 8 13 0.02 0.51
2:53 am 02:53 Cloudy with Light Rain 41 5 37 2.8 86 86 WSW 20 31 29.57 1001 7 11 0.05 1.27
3:18 am 03:18 Cloudy with Light Rain 41 5 37 2.8 86 86 WSW 17 28 29.62 1003 8 13 0.04 1.02
3:53 am 03:53 Cloudy with Light Rain 41 5 37 2.8 86 86 WSW 18 30 29.58 1002 8 13 0.11 2.79
4:53 am 04:53 Cloudy with Light Rain 41 5 38 3.3 89 89 SW 12 19 29.60 1002 10 16 0.14 3.56
5:15 am 05:15 Cloudy with Light Rain 41 5 37 2.8 86 86 SW 15 24 29.65 1004 10 16 0.03 0.76
5:53 am 05:53 Cloudy 44 6.7 39 3.9 83 83 W 21 33 29.60 1002 10 16 0.05 1.27
6:53 am 06:53 Cloudy with Light Rain 46 7.8 39 3.9 77 77 WNW 21 33 29.63 1003 10 16 0.00 0.03
7:53 am 07:53 Cloudy 47 8.3 39 3.9 74 74 WNW 18 30 29.66 1004 10 16 0.00 0.03
8:53 am 08:53 Cloudy 49 9.4 38 3.3 66 66 NW 21 33 29.68 1005 10 16 0.00 0.00
9:53 am 09:53 Mostly Cloudy 50 10 37 2.8 61 61 NNW 23 37 29.71 1006 10 16 0.00 0.00
10:53 am 10:53 Cloudy 56 13.3 36 2.2 47 47 NNW 24 39 29.69 1005 10 16 0.00 0.00
11:53 am 11:53 Partly Cloudy 55 12.8 33 0.6 44 44 NW 26 43 29.72 1006 10 16 0.00 0.00
12:53 pm 12:53 Partly Cloudy 57 13.9 31 -0.6 37 37 NW 30 48 29.75 1007 10 16 0.00 0.00
1:53 pm 13:53 Mostly Cloudy 58 14.4 30 -1.1 35 35 NNW 28 44 29.77 1008 10 16 0.00 0.00
2:53 pm 14:53 Partly Cloudy 61 16.1 31 -0.6 32 32 NNW 23 37 29.78 1008 10 16 0.00 0.00
3:53 pm 15:53 Cloudy 55 12.8 33 0.6 44 44 NNW 14 22 29.82 1010 10 16 0.00 0.00
4:53 pm 16:53 Cloudy 54 12.2 35 1.7 49 49 NNW 10 17 29.84 1010 10 16 0.00 0.03
5:53 pm 17:53 Mostly Cloudy 55 12.8 34 1.1 45 45 NNW 10 17 29.83 1010 10 16 0.00 0.03
6:53 pm 18:53 Mostly Cloudy 53 11.7 36 2.2 52 52 WNW 7 11 29.83 1010 10 16 0.00 0.03
7:53 pm 19:53 Cloudy 51 10.6 36 2.2 56 56 NW 10 17 29.88 1012 10 16 0.00 0.00
8:53 pm 20:53 Cloudy 48 8.9 39 3.9 71 71 WNW 8 13 29.88 1012 10 16 0.00 0.03
9:53 pm 21:53 Partly Cloudy 46 7.8 39 3.9 77 77 WNW 7 11 29.91 1013 10 16 0.00 0.00
10:53 pm 22:53 Clear 46 7.8 37 2.8 71 71 WNW 10 17 29.90 1013 10 16 0.00 0.00
11:53 pm 23:53 Clear 45 7.2 37 2.8 74 74 NNW 8 13 29.92 1013 10 16 0.00 0.00

Powered by AerisWeather